Anniston, AL

3:08 PM CDT on June 26, 2017 (GMT -0500)
Anniston Metro

Weather History for KANB - October, 2011

Change the Weather History Date:

Monday, October 17, 2011

  Actual Average Record
Temperature  
Mean Temperature 67 °F 63 °F  
Max Temperature 85 °F 75 °F 88 °F (1965)
Min Temperature 48 °F 51 °F 31 °F (1954)
Degree Days  
Heating Degree Days 0    
Month to date heating degree days 38  
Since 1 July heating degree days 44  
Cooling Degree Days 1    
Growing Degree Days 16 (Base 50)    
Moisture  
Dew Point 53 °F    
Average Humidity 67    
Maximum Humidity 100    
Minimum Humidity 34    
Precipitation  
Precipitation 0.00 in 0.10 in 0.61 in (2013)
Month to date precipitation 0.27 1.65  
Year to date precipitation 35.62 39.50  
Sea Level Pressure  
Sea Level Pressure 29.95 in    
Wind  
Wind Speed 2 mph (SW)    
Max Wind Speed 10 mph    
Max Gust Speed 15 mph    
Visibility 10 miles    
Events      
T = Trace of Precipitation, MM = Missing Value Source: NWS Daily Summary

Daily Weather History Graph

Daily Weather History Graph

Search for Another Location

Airport or City:

Trip Planner

Search our weather history database for the weather conditions in past years. The results will help you decide how hot, cold, wet, or windy it might be!

Date:

Astronomy

Oct. 17, 2011 Rise Set
Actual Time 6:49 AM CDT 6:07 PM CDT
Civil Twilight 6:24 AM CDT 6:32 PM CDT
Nautical Twilight 5:55 AM CDT 7:01 PM CDT
Astronomical Twilight 5:26 AM CDT 7:30 PM CDT
Moon 9:59 PM CDT (10/17) 11:43 AM CDT (10/17)
Length of Visible Light 12h 08m
Length of Day
11h 18m
Waning Gibbous, 74% of the Moon is Illuminated
Oct 17
Waning Gibbous
Oct 19
Last Quarter
Oct 26
New
Nov 2
First Quarter
Nov 10
Full

Hourly Weather History & Observations

Time (CDT) Temp. Heat Index Dew Point Humidity Pressure Visibility Wind Dir Wind Speed Gust Speed Precip Events Conditions
12:53 AM 52.0 °F - 50.0 °F 93% 30.03 in 10.0 mi Calm Calm - N/A   Clear
1:53 AM 52.0 °F - 50.0 °F 93% 30.02 in 10.0 mi Calm Calm - N/A   Clear
3:53 AM 48.9 °F - 48.0 °F 97% 30.01 in 9.0 mi Calm Calm - 0.01 in   Clear
4:53 AM 48.9 °F - 46.9 °F 93% 30.01 in 10.0 mi Calm Calm - N/A   Clear
5:53 AM 48.9 °F - 46.9 °F 93% 30.03 in 10.0 mi Calm Calm - N/A   Clear
6:53 AM 48.9 °F - 46.9 °F 93% 30.03 in 10.0 mi East 3.5 mph - N/A   Clear
7:53 AM 52.0 °F - 48.0 °F 86% 30.04 in 10.0 mi Calm Calm - N/A   Clear
8:53 AM 59.0 °F - 52.0 °F 78% 30.04 in 8.0 mi Calm Calm - N/A   Clear
9:53 AM 70.0 °F - 53.1 °F 55% 30.03 in 10.0 mi Calm Calm - N/A   Clear
10:53 AM 77.0 °F - 54.0 °F 45% 30.01 in 10.0 mi WSW 5.8 mph - N/A   Clear
11:53 AM 79.0 °F - 55.0 °F 44% 29.98 in 10.0 mi South 5.8 mph - N/A   Clear
12:53 PM 81.0 °F 80.7 °F 55.0 °F 41% 29.95 in 10.0 mi WSW 5.8 mph - N/A   Clear
1:53 PM 82.9 °F 81.8 °F 53.1 °F 36% 29.91 in 10.0 mi SW 8.1 mph - N/A   Clear
2:53 PM 84.0 °F 82.5 °F 53.1 °F 34% 29.89 in 10.0 mi West 5.8 mph - N/A   Clear
3:53 PM 84.0 °F 82.9 °F 55.0 °F 37% 29.88 in 10.0 mi WSW 6.9 mph - N/A   Clear
4:53 PM 82.9 °F 81.9 °F 54.0 °F 37% 29.86 in 10.0 mi West 6.9 mph - N/A   Clear
5:53 PM 75.0 °F - 57.9 °F 55% 29.87 in 10.0 mi Calm Calm - N/A   Clear
6:53 PM 66.9 °F - 57.9 °F 73% 29.89 in 10.0 mi Calm Calm - N/A   Clear
7:53 PM 63.0 °F - 57.9 °F 84% 29.90 in 10.0 mi Calm Calm - N/A   Clear
8:53 PM 61.0 °F - 57.9 °F 90% 29.89 in 10.0 mi Calm Calm - N/A   Clear
9:53 PM 60.1 °F - 57.0 °F 90% 29.88 in 10.0 mi Calm Calm - N/A   Clear
10:53 PM 59.0 °F - 55.9 °F 90% 29.86 in 9.0 mi East 3.5 mph - N/A   Clear
11:53 PM 57.9 °F - 55.0 °F 90% 29.84 in 7.0 mi Calm Calm - N/A   Clear